• In Russia
  • List of Countries
  • For 7 days
  • Water Temperature
  • Satellite Maps
  • Weather Map
  • Weather Widgets
  • user-avatar
    Login

    Hourly Weather Townsville

    Today, 4 December, Sunday

    Time Temperature Precipitation Wind Pressure Humidity
    00:00 +25°C° 0 mm 2 mps 753 mmHg 85%
    01:00 +25°C° 0 mm 2 mps 753 mmHg 87%
    02:00 +25°C° 0 mm 2 mps 753 mmHg 88%
    03:00 +25°C° 0 mm 2 mps 753 mmHg 90%
    04:00 +24°C° 0 mm 2 mps 753 mmHg 91%
    05:00 +25°C° 0 mm 2 mps 753 mmHg 86%
    06:00 +27°C° 0 mm 2 mps 754 mmHg 81%
    07:00 +28°C° 0 mm 2 mps 754 mmHg 75%
    08:00 +30°C° 0 mm 3 mps 754 mmHg 64%
    09:00 +33°C° 0 mm 3 mps 754 mmHg 53%
    10:00 +35°C° 0 mm 3 mps 754 mmHg 42%
    11:00 +36°C° 0 mm 3 mps 754 mmHg 39%
    12:00 +37°C° 0 mm 3 mps 753 mmHg 37%
    13:00 +37°C° 0 mm 4 mps 753 mmHg 34%
    14:00 +37°C° 0 mm 4 mps 752 mmHg 35%
    15:00 +36°C° 0 mm 4 mps 752 mmHg 37%
    16:00 +35°C° 0 mm 4 mps 752 mmHg 39%
    17:00 +33°C° 0 mm 3 mps 752 mmHg 50%
    18:00 +30°C° 0 mm 3 mps 752 mmHg 61%
    19:00 +27°C° 0 mm 3 mps 753 mmHg 72%
    20:00 +26°C° 0 mm 3 mps 753 mmHg 79%
    21:00 +26°C° 0 mm 3 mps 753 mmHg 85%
    22:00 +25°C° 0 mm 3 mps 754 mmHg 91%
    23:00 +25°C° 0 mm 3 mps 753 mmHg 93%

    Tomorrow, 5 December, Monday

    Time Temperature Precipitation Wind Pressure Humidity
    00:00 +25°C° 0 mm 3 mps 753 mmHg 95%
    01:00 +24°C° 0 mm 3 mps 753 mmHg 96%
    02:00 +24°C° 0 mm 3 mps 753 mmHg 96%
    03:00 +24°C° 0 mm 3 mps 753 mmHg 96%
    04:00 +25°C° 0 mm 3 mps 753 mmHg 95%
    05:00 +25°C° 0 mm 3 mps 753 mmHg 90%
    06:00 +26°C° 0 mm 3 mps 754 mmHg 85%
    07:00 +27°C° 0 mm 3 mps 754 mmHg 80%
    08:00 +29°C° 0 mm 4 mps 754 mmHg 69%
    09:00 +33°C° 0 mm 4 mps 754 mmHg 57%
    10:00 +35°C° 0 mm 4 mps 754 mmHg 46%
    11:00 +36°C° 0 mm 4 mps 754 mmHg 43%
    12:00 +36°C° 0 mm 4 mps 753 mmHg 39%
    13:00 +37°C° 0 mm 4 mps 753 mmHg 36%
    14:00 +37°C° 0 mm 4 mps 752 mmHg 38%
    15:00 +36°C° 0 mm 4 mps 752 mmHg 39%
    16:00 +35°C° 0 mm 4 mps 751 mmHg 41%
    17:00 +33°C° 0 mm 3 mps 752 mmHg 53%
    18:00 +30°C° 0 mm 3 mps 752 mmHg 64%
    19:00 +27°C° 0 mm 3 mps 752 mmHg 75%
    20:00 +26°C° 0 mm 3 mps 753 mmHg 80%
    21:00 +26°C° 0 mm 3 mps 753 mmHg 86%
    22:00 +25°C° 0 mm 3 mps 754 mmHg 91%
    23:00 +25°C° 0 mm 3 mps 754 mmHg 92%

    Day after tomorrow, 6 December, Tuesday

    Time Temperature Precipitation Wind Pressure Humidity
    00:00 +25°C° 0 mm 3 mps 753 mmHg 94%
    01:00 +25°C° 0 mm 3 mps 753 mmHg 95%
    02:00 +25°C° 0 mm 3 mps 753 mmHg 95%
    03:00 +25°C° 0 mm 3 mps 752 mmHg 94%
    04:00 +25°C° 0 mm 3 mps 752 mmHg 94%
    05:00 +26°C° 0 mm 3 mps 753 mmHg 89%
    06:00 +27°C° 0 mm 3 mps 753 mmHg 84%
    07:00 +28°C° 0 mm 3 mps 754 mmHg 80%
    08:00 +30°C° 0 mm 3 mps 754 mmHg 68%
    09:00 +33°C° 0 mm 3 mps 754 mmHg 57%
    10:00 +35°C° 0 mm 4 mps 754 mmHg 45%
    11:00 +36°C° 0 mm 4 mps 753 mmHg 42%
    12:00 +37°C° 0 mm 4 mps 753 mmHg 40%
    13:00 +37°C° 0 mm 4 mps 752 mmHg 37%
    14:00 +36°C° 0 mm 4 mps 752 mmHg 39%
    15:00 +36°C° 0 mm 4 mps 751 mmHg 41%
    16:00 +35°C° 0 mm 4 mps 751 mmHg 43%
    17:00 +33°C° 0 mm 4 mps 751 mmHg 54%
    18:00 +29°C° 0 mm 4 mps 752 mmHg 65%
    19:00 +27°C° 0 mm 4 mps 752 mmHg 76%
    20:00 +26°C° 0 mm 4 mps 753 mmHg 81%
    21:00 +26°C° 0 mm 4 mps 753 mmHg 86%
    22:00 +25°C° 0 mm 4 mps 753 mmHg 91%
    23:00 +25°C° 0 mm 4 mps 753 mmHg 91%

    7 December, Wednesday

    Time Temperature Precipitation Wind Pressure Humidity
    00:00 +25°C° 0 mm 4 mps 753 mmHg 90%
    01:00 +25°C° 0 mm 4 mps 752 mmHg 89%
    02:00 +23°C° 0 mm 4 mps 752 mmHg 91%
    03:00 +24°C° 0 mm 3 mps 752 mmHg 92%
    04:00 +22°C° 0 mm 3 mps 752 mmHg 94%
    05:00 +24°C° 0 mm 3 mps 752 mmHg 87%
    06:00 +26°C° 0 mm 3 mps 753 mmHg 80%
    07:00 +27°C° 0 mm 3 mps 753 mmHg 73%
    08:00 +29°C° 0 mm 3 mps 753 mmHg 63%
    09:00 +31°C° 0 mm 3 mps 753 mmHg 53%
    10:00 +34°C° 0 mm 3 mps 753 mmHg 43%
    11:00 +35°C° 0 mm 4 mps 753 mmHg 41%
    12:00 +36°C° 0 mm 4 mps 752 mmHg 38%
    13:00 +36°C° 0 mm 4 mps 752 mmHg 36%
    14:00 +36°C° 0 mm 4 mps 751 mmHg 40%
    15:00 +35°C° 0 mm 4 mps 751 mmHg 43%
    16:00 +34°C° 0 mm 4 mps 750 mmHg 47%
    17:00 +32°C° 0 mm 4 mps 751 mmHg 57%
    18:00 +28°C° 0 mm 4 mps 751 mmHg 66%
    19:00 +26°C° 0 mm 3 mps 752 mmHg 76%
    20:00 +26°C° 0 mm 3 mps 752 mmHg 80%
    21:00 +25°C° 0 mm 3 mps 753 mmHg 84%
    22:00 +25°C° 0 mm 3 mps 753 mmHg 87%
    23:00 +25°C° 0 mm 3 mps 753 mmHg 88%

    8 December, Thursday

    Time Temperature Precipitation Wind Pressure Humidity
    00:00 +25°C° 0 mm 3 mps 753 mmHg 90%
    01:00 +25°C° 0 mm 3 mps 752 mmHg 91%
    02:00 +24°C° 0 mm 3 mps 752 mmHg 91%
    03:00 +24°C° 0 mm 2 mps 752 mmHg 92%
    04:00 +24°C° 0 mm 2 mps 751 mmHg 92%
    05:00 +25°C° 0 mm 2 mps 752 mmHg 87%
    06:00 +26°C° 0 mm 2 mps 752 mmHg 81%
    07:00 +27°C° 0 mm 3 mps 753 mmHg 76%
    08:00 +29°C° 0 mm 3 mps 753 mmHg 66%
    09:00 +31°C° 0 mm 3 mps 752 mmHg 56%
    10:00 +35°C° 0 mm 4 mps 752 mmHg 46%
    11:00 +35°C° 0 mm 4 mps 752 mmHg 45%
    12:00 +36°C° 0 mm 4 mps 751 mmHg 43%
    13:00 +36°C° 0 mm 4 mps 750 mmHg 42%
    14:00 +36°C° 0 mm 4 mps 750 mmHg 45%
    15:00 +35°C° 0 mm 4 mps 750 mmHg 48%
    16:00 +34°C° 0 mm 4 mps 749 mmHg 52%
    17:00 +32°C° 0 mm 4 mps 750 mmHg 61%
    18:00 +29°C° 0 mm 3 mps 751 mmHg 71%
    19:00 +27°C° 0 mm 3 mps 751 mmHg 80%
    20:00 +27°C° 0 mm 3 mps 752 mmHg 84%
    21:00 +26°C° 0 mm 3 mps 752 mmHg 88%
    22:00 +26°C° 0 mm 3 mps 752 mmHg 91%
    23:00 +26°C° 0 mm 3 mps 752 mmHg 92%

    9 December, Friday

    Time Temperature Precipitation Wind Pressure Humidity
    00:00 +26°C° 0 mm 3 mps 751 mmHg 92%
    01:00 +26°C° 0 mm 3 mps 751 mmHg 92%
    02:00 +26°C° 0 mm 3 mps 751 mmHg 93%
    03:00 +25°C° 0 mm 3 mps 751 mmHg 94%
    04:00 +25°C° 0 mm 3 mps 751 mmHg 95%
    05:00 +26°C° 0 mm 3 mps 751 mmHg 90%
    06:00 +27°C° 0 mm 3 mps 752 mmHg 86%
    07:00 +28°C° 0 mm 3 mps 752 mmHg 82%
    08:00 +29°C° 0 mm 3 mps 752 mmHg 74%
    09:00 +31°C° 0 mm 3 mps 752 mmHg 66%
    10:00 +33°C° 0 mm 3 mps 752 mmHg 59%
    11:00 +34°C° 0 mm 3 mps 751 mmHg 55%
    12:00 +35°C° 0 mm 3 mps 751 mmHg 52%
    13:00 +36°C° 0 mm 4 mps 750 mmHg 48%
    14:00 +35°C° 0 mm 4 mps 750 mmHg 49%
    15:00 +35°C° 0 mm 4 mps 750 mmHg 50%
    16:00 +35°C° 0 mm 4 mps 750 mmHg 51%
    17:00 +33°C° 0 mm 3 mps 750 mmHg 61%
    18:00 +30°C° 0 mm 3 mps 751 mmHg 71%
    19:00 +28°C° 0 mm 3 mps 751 mmHg 80%
    20:00 +27°C° 0 mm 3 mps 751 mmHg 85%
    21:00 +27°C° 0 mm 3 mps 752 mmHg 89%
    22:00 +26°C° 0 mm 3 mps 752 mmHg 93%
    23:00 +26°C° 0 mm 3 mps 752 mmHg 94%
    Show more